Temp
16 15 15 15 14 14 14 14 13 13 13 13 12 12 12 12 11 11 11 11 11 11 11 11 11 11 11 11 12 12 11 11 11 11 11 11 11 12 12 12 11 11 11 11 11 10 10 9 9 8 8 7 7 7 6 6 6 6 5 5 5 5 5 5 5 5 5 5 5
16 15 15 14 14 14 14 13 13 13 13 13 12 12 12 12 12 11 11 11 11 11 11 10 10 11 11 11 12 11 11 11 11 11 11 11 11 11 11 11 11 11 11 11 10 10 9 9 8 8 7 7 7 6 6 6 5 5 5 5 5 5 5 5 5 5 5 5 5
15 15 14 14 14 13 13 13 13 13 13 12 12 12 12 12 12 11 11 11 11 11 11 10 10 11 11 11 11 11 11 11 11 11 11 11 11 11 11 11 11 11 11 10 10 10 9 8 8 8 7 7 7 6 6 5 5 5 5 5 5 5 5 5 5 5 5 4 4
15 14 14 14 13 13 13 13 13 13 12 12 12 12 12 12 11 11 11 11 11 10 10 11 11 11 11 11 11 11 11 11 11 11 11 11 11 11 11 11 11 11 10 10 10 9 9 8 8 8 7 7 6 6 6 5 5 5 5 5 5 5 5 4 4 4 4 4 4
14 14 14 14 13 13 13 13 13 13 12 12 12 12 12 11 11 11 11 11 10 10 11 11 11 11 11 11 11 11 11 11 11 11 11 11 11 11 11 11 10 10 10 10 9 9 8 8 8 7 7 6 6 6 5 5 5 5 5 5 4 4 4 4 4 4 4 4 4
14 14 14 13 13 13 13 13 13 13 12 12 12 12 11 11 11 11 11 11 10 10 11 11 11 11 11 11 11 11 11 10 10 11 11 11 11 11 11 10 10 10 10 10 9 9 8 8 7 7 7 6 6 6 5 5 5 5 5 4 4 4 4 4 4 4 4 4 4
14 14 14 13 13 13 13 13 13 12 12 12 12 12 11 11 11 11 11 11 10 10 10 11 11 11 11 11 11 11 10 10 10 11 11 11 11 10 10 10 10 10 10 9 9 8 8 7 7 7 6 6 5 5 5 5 5 5 4 4 4 4 4 4 4 4 4 4 3
14 14 14 14 13 13 13 13 12 12 12 12 12 12 12 11 11 11 11 11 10 10 10 11 11 11 11 11 11 10 10 10 10 10 11 11 10 10 10 10 10 10 9 9 9 8 8 7 7 6 6 5 5 5 5 5 5 4 4 4 4 4 4 4 4 3 3 3 3
13 13 13 13 13 13 13 12 12 12 12 12 12 12 12 11 11 11 11 10 10 10 10 10 11 11 11 11 11 10 10 10 10 10 10 10 10 10 10 10 9 9 9 8 8 8 7 7 6 6 6 5 5 5 5 4 4 4 4 4 4 4 4 4 4 3 3 3 3
13 13 13 13 13 13 12 12 12 12 12 12 12 12 11 11 11 11 10 10 10 10 10 11 11 11 11 11 11 10 10 10 10 10 10 10 10 10 10 9 9 9 8 8 8 7 7 6 6 6 5 5 5 5 4 4 4 4 4 4 4 4 4 4 3 3 3 3 3
13 13 13 13 12 12 12 12 12 12 12 12 11 11 11 11 10 10 10 10 10 10 10 11 11 11 11 11 11 11 10 10 10 10 10 10 10 10 9 9 9 8 8 8 7 7 7 6 6 6 5 5 5 4 4 4 4 4 4 4 4 3 3 3 3 3 3 3 3
12 12 12 12 12 12 12 12 12 12 12 11 11 11 10 10 10 10 10 10 10 10 10 11 11 11 11 11 11 10 10 10 10 10 10 9 9 9 9 9 8 8 8 7 7 7 6 6 6 5 5 5 4 4 4 4 4 4 4 3 3 3 3 3 3 3 3 3 3
12 12 12 12 12 12 12 12 12 11 11 11 11 10 10 10 10 10 10 10 10 10 10 11 11 11 11 11 10 10 10 10 10 10 9 9 9 9 9 8 8 8 7 7 7 7 6 6 6 5 5 4 4 4 4 4 4 4 4 3 3 3 3 3 3 3 3 3 3
12 12 12 12 12 12 12 12 12 11 11 11 11 11 11 10 10 10 10 11 11 10 10 10 10 10 10 10 10 10 10 10 9 9 9 9 9 8 8 8 8 7 7 7 7 7 6 6 6 5 5 4 4 4 4 4 4 4 4 4 3 3 3 3 3 3 3 3 2
11 11 11 11 11 11 12 12 12 12 12 12 11 11 11 11 10 10 10 10 11 11 10 10 10 10 10 10 10 10 10 9 9 9 8 8 8 8 8 8 7 7 7 7 7 6 6 6 6 5 5 4 4 4 4 4 4 4 3 3 3 3 3 3 3 2 2 2 2
11 11 11 11 11 11 11 11 11 11 11 11 11 11 10 10 10 10 10 10 10 10 10 10 9 9 9 9 9 9 9 9 8 8 8 8 8 8 8 8 7 7 7 7 6 6 6 6 5 5 5 4 4 4 4 4 4 4 3 3 3 3 3 3 2 2 2 2 2
10 10 10 10 10 11 11 11 11 11 10 10 10 9 9 9 9 9 9 9 8 8 8 9 9 9 9 9 9 9 8 8 8 8 8 7 7 8 8 7 7 7 7 7 6 6 6 6 5 5 5 4 4 4 4 4 4 4 4 3 3 3 3 3 2 2 2 2 2
10 10 10 10 10 10 10 10 10 10 9 9 9 8 8 8 8 7 7 7 7 8 8 9 9 9 9 9 8 8 8 8 8 8 7 7 8 8 8 7 7 7 7 6 6 6 6 5 5 4 4 4 4 5 5 4 4 4 4 4 4 3 3 3 2 2 2 2 2
10 10 10 10 10 10 10 10 9 9 9 8 8 8 8 7 7 7 7 7 8 9 9 9 9 9 9 8 8 8 8 8 8 7 7 8 8 8 7 7 7 7 7 6 6 6 5 5 4 4 4 4 4 4 4 4 4 4 4 4 4 3 3 3 2 2 2 2 2
10 10 10 10 10 9 9 9 9 9 8 8 8 7 7 7 7 7 8 8 9 9 9 9 9 8 8 8 8 8 8 8 8 7 7 7 7 7 7 7 7 7 6 6 6 6 5 5 4 4 4 4 4 4 4 4 4 3 3 3 3 3 3 3 2 2 2 2 2
9 9 9 9 9 9 9 9 8 8 8 8 7 7 7 7 8 8 9 9 9 9 9 9 9 9 8 8 8 8 8 8 8 7 7 7 7 7 7 7 7 6 6 6 6 5 5 5 4 4 4 4 4 4 4 3 3 3 3 3 3 3 2 2 2 2 2 2 2
9 9 9 9 9 9 8 8 8 8 7 7 7 7 8 8 8 9 9 9 9 9 9 9 9 9 9 9 9 8 8 8 7 7 7 7 7 7 7 6 6 6 6 6 5 5 5 5 5 5 5 4 4 4 4 4 3 3 3 3 3 3 2 2 2 2 2 2 2
9 9 9 8 8 8 8 8 8 7 7 7 8 8 8 8 9 9 9 9 9 10 10 10 9 9 9 9 9 8 8 8 7 7 7 7 7 7 6 6 6 6 6 6 5 5 5 5 5 5 5 5 4 4 4 4 4 4 3 3 3 3 2 2 2 2 2 2 2
9 9 8 8 8 8 8 8 8 8 8 8 8 8 8 8 8 9 9 9 10 10 9 9 9 9 9 9 8 8 8 8 7 7 7 7 7 6 6 6 6 6 6 6 6 5 5 5 5 5 5 5 4 4 4 4 4 4 3 3 3 2 2 2 2 2 2 2 3
9 9 9 8 8 8 8 8 8 8 8 8 8 8 8 8 8 8 9 9 9 9 8 8 8 8 8 8 8 8 7 7 7 7 7 7 6 6 6 6 6 5 6 6 6 6 6 5 5 5 5 4 4 4 4 4 4 3 3 3 2 2 2 2 2 3 3 3 3
9 9 8 8 8 8 8 8 8 8 8 8 8 8 8 8 8 8 8 8 8 8 7 7 8 8 8 8 7 7 7 7 7 7 7 6 6 6 6 6 5 6 6 6 6 6 6 5 5 5 5 4 4 4 4 4 3 3 2 2 2 2 2 2 3 3 3 3 3
8 8 8 8 8 8 8 8 8 7 7 7 7 7 7 7 8 8 8 8 8 7 7 7 8 8 7 7 7 7 7 7 7 7 7 6 6 6 6 6 6 6 6 6 6 6 6 5 5 5 4 4 4 4 3 3 3 2 2 2 2 2 2 2 3 3 3 3 3
8 8 8 8 8 8 8 7 7 7 7 7 7 7 7 7 8 8 8 8 7 7 7 7 7 7 7 7 7 7 7 7 7 7 6 6 6 6 6 6 6 6 6 6 6 6 5 5 5 4 4 4 3 3 3 2 2 2 2 2 2 2 2 3 3 3 3 3 3
8 8 8 8 8 8 8 7 7 7 7 7 7 7 7 7 8 8 8 8 7 7 7 7 7 7 7 7 7 7 7 7 7 7 6 6 6 6 6 6 6 6 6 6 6 6 5 5 5 4 4 4 3 3 3 2 2 2 2 3 3 3 3 3 3 3 3 3 3
8 8 8 8 8 8 8 7 7 7 7 7 7 7 7 7 8 8 8 7 8 8 8 8 7 7 7 7 7 7 7 7 6 6 6 6 6 6 6 6 6 6 6 6 6 6 5 5 5 4 4 4 3 3 3 2 2 2 2 3 3 3 3 3 3 3 3 3 3
8 8 8 8 8 8 8 7 7 7 7 7 7 7 7 7 7 7 7 8 8 8 8 8 7 7 7 7 7 7 7 6 6 6 6 6 6 6 6 6 6 6 6 6 6 5 5 5 5 4 4 4 3 3 2 2 2 2 3 3 3 3 3 3 3 3 3 3 3
8 8 8 8 8 8 8 8 7 7 7 7 7 7 7 7 7 8 8 8 8 7 7 7 7 7 7 7 7 7 6 6 6 6 6 7 7 6 6 6 6 6 6 6 6 5 5 5 5 4 4 3 3 3 3 2 2 3 3 3 3 3 3 3 3 3 3 3 3
8 8 8 8 8 8 8 8 7 7 7 7 7 7 7 7 7 7 7 7 7 7 7 7 7 7 7 6 6 6 6 6 6 6 6 6 6 6 6 6 6 5 5 5 5 5 5 5 5 4 4 3 3 3 2 2 2 3 3 3 3 3 3 3 3 3 3 3 3
8 8 8 8 8 8 8 8 7 7 7 7 7 7 7 7 7 7 7 7 7 7 7 7 7 7 7 6 6 6 6 6 6 6 6 6 6 6 6 6 6 6 5 5 5 5 5 5 5 4 4 3 3 3 2 2 2 3 3 3 3 3 3 3 3 3 3 3 2
8 8 8 8 8 8 8 8 8 7 7 7 7 7 7 7 7 7 7 7 7 6 6 6 7 7 6 6 6 6 6 6 6 6 6 6 6 6 6 6 6 6 5 5 5 5 5 5 4 4 4 3 3 2 2 2 2 2 3 3 3 3 3 3 3 3 3 2 2
8 8 8 8 8 8 8 8 8 7 7 7 7 7 7 7 7 7 7 7 7 6 6 6 6 6 6 6 6 6 6 6 6 6 6 6 5 5 5 5 5 5 5 5 5 5 5 5 4 4 3 3 3 2 2 2 2 2 2 3 3 3 3 3 3 3 3 2 2
8 8 8 8 8 8 8 8 8 8 8 7 7 7 7 7 7 7 7 7 6 6 6 6 6 6 6 6 6 6 6 6 6 6 5 5 5 5 5 5 5 5 5 5 5 5 5 4 4 4 3 3 2 2 2 2 2 2 2 2 3 3 3 3 3 3 2 2 2
8 8 8 8 8 8 8 8 8 8 8 8 7 7 7 7 7 7 7 7 6 6 6 6 6 6 6 6 6 6 6 6 6 6 5 5 5 5 5 5 5 5 5 5 5 5 5 4 4 4 3 3 2 2 2 2 2 2 2 2 3 3 3 3 3 2 2 2 2
8 8 8 8 8 8 8 8 8 8 8 8 7 7 7 7 7 7 7 6 6 6 6 6 6 6 6 6 6 6 6 6 6 6 5 5 5 5 5 5 5 5 5 5 5 5 5 4 4 4 3 3 2 2 2 2 2 2 2 2 2 3 3 3 3 2 2 2 2
8 8 8 8 8 8 8 8 8 8 8 8 7 7 7 7 7 7 7 6 6 6 6 6 6 6 6 6 6 6 6 6 6 5 5 5 5 5 5 5 5 5 5 5 5 5 4 4 4 4 3 3 2 2 2 2 2 2 2 2 2 2 2 2 3 3 2 2 2
8 8 8 8 8 8 8 8 8 8 8 8 8 7 7 7 7 7 6 6 6 6 6 6 6 6 6 6 6 6 5 5 5 5 5 5 5 5 5 5 5 5 5 5 5 5 4 4 4 4 3 3 2 2 2 2 2 2 2 2 2 2 2 2 3 3 3 2 2
Height
782 783 784 786 787 789 790 791 793 794 796 797 799 800 801 803 805 806 808 809 810 812 813 815 816 818 819 820 821 822 823 824 825 825 826 827 827 828 828 829 829 830 830 831 831 831 832 832 833 833 833 834 834 834 834 835 835 835 835 836 836 836 836 836 836 836 836 836 836
781 782 783 784 786 787 789 790 792 794 795 796 798 799 800 802 804 805 807 808 809 811 812 814 815 816 818 819 820 821 822 823 824 824 825 826 826 827 827 828 829 829 829 830 830 830 831 831 832 832 832 833 833 834 834 834 834 834 835 835 835 835 835 835 835 835 835 835 835
779 780 782 783 785 786 788 789 791 793 794 796 797 799 800 801 803 804 805 807 808 810 811 812 814 815 817 818 819 820 821 822 822 823 824 824 825 826 826 827 827 828 828 829 829 830 830 830 831 831 832 832 832 833 833 834 834 834 834 834 834 834 834 834 834 834 834 834 834
777 779 780 782 784 785 787 788 790 792 794 795 796 798 799 800 802 803 804 806 807 809 809 811 813 814 815 817 818 819 820 821 821 822 823 824 824 825 825 826 826 827 827 828 828 829 829 830 830 830 831 831 832 832 833 833 833 834 834 834 834 834 834 834 834 834 834 833 833
776 778 780 781 783 784 786 787 789 791 793 794 795 797 798 799 801 802 803 804 806 807 808 809 811 813 814 815 817 818 819 819 820 821 822 822 823 824 824 825 825 826 826 827 827 828 828 829 829 829 830 831 831 832 832 833 833 833 833 833 833 833 833 833 833 833 833 832 832
776 778 779 781 782 784 785 787 788 790 791 793 794 795 797 798 799 800 802 803 804 806 807 809 810 812 813 814 815 817 818 819 819 820 821 821 822 823 824 824 824 825 825 826 826 827 828 828 828 829 829 830 830 831 831 832 832 832 832 832 832 832 832 832 832 832 832 832 831
776 777 779 780 782 783 784 786 787 789 790 791 793 794 795 796 798 799 800 802 803 804 806 808 809 810 812 813 814 815 816 817 818 819 819 820 821 822 822 823 824 824 824 825 825 826 827 827 828 828 829 829 829 830 830 831 831 831 831 831 831 831 831 831 831 831 831 831 831
776 777 779 780 781 783 784 785 786 788 789 790 792 793 794 795 797 798 799 801 802 803 804 806 808 809 810 812 813 814 815 816 817 818 818 819 820 821 821 822 823 823 824 824 824 825 826 826 827 827 828 828 829 829 829 830 830 830 830 830 830 830 830 830 830 830 830 830 829
776 777 778 779 781 782 782 784 784 786 787 789 791 792 793 794 795 797 798 799 800 802 803 805 806 808 809 810 812 813 814 815 816 816 817 818 819 820 820 821 822 822 823 823 824 824 825 825 826 827 827 828 828 828 829 829 829 829 829 829 829 829 830 829 829 829 829 829 829
774 776 777 779 779 780 781 782 784 785 787 788 790 791 792 794 794 796 797 798 799 801 802 804 805 807 808 809 811 812 813 814 814 815 816 817 818 819 819 820 821 821 822 822 823 824 824 824 825 826 826 827 827 828 828 828 828 828 828 828 829 829 829 829 829 829 828 828 828
773 774 775 777 778 779 780 782 783 785 786 788 789 790 791 793 794 795 796 797 799 800 802 803 804 805 807 808 809 810 812 813 814 814 815 816 817 818 818 819 819 820 821 821 822 823 823 824 824 825 825 826 826 827 827 827 827 827 827 827 827 827 828 828 828 827 827 827 827
772 773 774 775 776 778 779 780 782 784 785 787 788 789 790 792 793 794 795 797 798 799 801 802 803 804 806 807 808 809 810 811 812 813 814 815 816 816 817 818 819 819 820 820 821 822 822 823 823 824 824 825 825 826 826 826 826 826 826 826 826 826 826 826 826 826 826 826 825
771 772 773 774 775 776 778 779 781 783 784 785 787 788 789 790 792 793 794 796 797 798 799 801 802 803 804 806 807 808 809 810 811 812 813 814 814 815 816 817 817 818 819 819 820 821 821 822 822 823 824 824 824 825 825 825 825 825 825 825 825 825 825 825 825 825 825 824 824
770 771 772 773 774 775 777 778 779 781 782 784 785 786 788 789 790 791 793 794 795 797 798 799 801 802 803 804 806 807 808 809 810 811 812 812 813 814 815 815 816 817 818 819 819 820 820 821 821 822 823 823 824 824 824 824 824 824 824 824 824 824 824 824 824 824 824 823 823
770 771 771 772 773 774 775 777 778 779 780 781 783 784 785 786 788 789 791 792 793 794 796 798 799 801 802 804 805 806 807 808 809 810 811 811 812 813 813 814 815 816 817 818 818 819 819 820 820 821 821 822 822 823 823 823 823 823 823 823 823 823 823 822 823 822 822 822 822
769 770 771 772 773 774 774 775 777 778 779 779 781 782 783 784 786 787 789 790 791 792 794 795 797 799 801 803 804 805 806 807 808 809 810 811 811 812 812 813 814 815 816 817 817 818 819 819 819 820 820 821 821 821 821 822 822 822 821 821 821 821 821 821 821 821 821 820 820
769 770 771 771 772 773 774 775 776 777 778 779 780 781 782 783 784 786 787 788 789 790 792 794 796 798 800 802 803 804 805 806 807 808 809 809 810 810 811 812 813 814 815 816 816 817 817 818 819 819 819 819 820 820 820 820 820 820 820 820 820 820 819 819 819 819 819 819 819
769 769 770 771 772 773 774 775 776 777 778 779 780 781 782 783 784 785 786 787 789 790 793 795 796 798 799 801 802 803 804 805 806 807 808 809 809 810 810 811 812 813 814 814 815 816 816 817 817 818 818 818 819 819 819 819 819 819 819 819 819 818 818 818 818 818 818 817 817
767 768 769 770 772 773 774 774 775 776 777 779 779 781 782 783 784 785 787 789 790 792 794 795 797 798 799 800 802 803 804 804 805 806 807 808 808 809 810 810 811 812 813 814 814 815 815 816 816 817 817 817 817 817 817 817 817 817 817 817 817 817 817 816 816 816 816 816 815
765 767 768 769 770 772 773 774 775 776 777 778 779 780 782 783 784 786 788 790 792 793 794 795 797 798 799 801 802 803 804 804 805 806 806 807 808 808 809 810 810 811 812 813 813 814 814 815 815 815 816 816 816 816 816 816 816 816 816 816 815 815 815 815 815 814 814 814 814
765 766 767 768 770 771 772 774 774 775 776 778 779 780 782 783 785 787 789 790 791 793 794 796 797 798 799 800 801 802 803 804 804 805 806 806 807 808 808 809 809 810 811 812 812 813 813 814 814 814 814 815 815 815 815 815 815 815 814 814 814 814 814 814 814 813 813 813 812
765 766 767 769 770 771 772 773 774 775 776 778 779 781 782 784 785 787 789 790 791 793 794 796 797 798 799 799 800 801 802 803 804 804 805 806 806 807 808 808 809 809 810 810 811 811 812 812 813 813 813 814 814 814 814 814 814 814 814 813 813 813 813 813 812 812 812 811 811
764 766 767 768 769 771 772 773 774 775 776 778 779 781 782 784 785 787 788 789 791 793 794 795 796 797 798 799 799 800 801 802 803 804 804 805 806 806 807 807 808 808 809 809 809 810 810 811 811 812 812 812 812 812 812 812 812 812 812 812 812 811 811 811 811 810 810 809 809
764 765 766 768 769 770 771 772 774 775 776 778 779 780 782 783 784 786 787 789 790 791 793 794 795 796 797 798 799 800 800 801 802 803 804 804 805 805 806 806 807 807 807 808 808 809 809 810 810 810 811 811 811 811 811 811 811 811 811 810 810 810 809 809 809 809 808 808 808
762 763 765 766 768 769 770 771 773 774 775 777 778 779 781 782 784 785 786 788 789 790 792 793 794 795 796 797 798 799 800 801 801 802 803 803 804 804 805 805 805 806 806 807 807 808 808 809 809 809 809 809 809 809 809 809 809 809 809 809 809 808 808 808 807 807 807 806 806
761 762 764 765 766 767 769 770 771 773 774 776 777 779 780 782 783 784 785 787 788 789 791 792 793 794 795 796 797 798 799 800 800 801 802 802 803 803 804 804 804 804 805 805 806 807 807 808 808 808 808 808 808 808 808 808 808 808 808 807 807 807 806 806 805 805 805 805 804
760 761 763 764 765 767 768 769 771 773 774 775 777 778 780 781 782 784 785 786 788 789 790 791 792 794 795 796 796 797 798 799 799 800 800 801 802 802 802 803 803 804 804 804 805 806 806 806 806 806 807 807 807 807 806 806 806 806 806 806 805 805 805 804 804 804 803 803 803
759 761 762 764 765 766 768 769 771 772 773 775 776 778 779 780 781 783 784 785 787 788 789 790 792 793 794 795 795 796 797 798 798 799 799 800 800 801 801 802 802 803 803 804 804 804 805 805 805 805 805 805 805 805 805 805 805 805 805 804 804 803 803 802 802 802 801 801 801
759 760 762 763 764 766 767 769 770 771 773 774 775 777 778 779 781 782 783 785 786 787 788 789 791 792 793 794 794 795 796 797 797 798 799 799 799 800 800 801 801 801 802 802 803 803 804 804 804 804 804 804 804 804 804 804 804 804 803 803 802 802 801 801 800 800 799 799 799
759 760 761 762 764 765 766 768 769 770 772 773 774 776 777 779 780 781 783 784 785 786 787 788 789 790 791 792 793 794 795 795 796 797 797 798 798 799 799 800 800 800 801 801 801 802 802 802 802 803 803 803 803 803 803 802 802 802 801 801 800 800 799 799 799 798 798 798 797
758 759 761 762 763 764 766 767 768 770 771 772 774 775 776 778 779 780 782 783 784 785 786 788 789 789 790 791 792 793 794 794 795 795 796 796 797 798 798 799 799 799 799 800 800 800 801 801 801 801 801 801 801 801 801 801 800 800 799 799 799 798 798 797 797 796 796 796 795
758 759 760 761 763 764 765 766 768 769 770 771 773 774 775 777 778 779 781 782 783 784 786 787 788 789 789 790 791 792 793 794 794 794 795 795 796 797 797 797 798 798 798 798 799 799 799 799 799 799 800 800 800 800 799 799 799 798 798 797 796 796 796 795 795 794 794 794 794
757 759 760 761 762 764 765 766 767 769 770 771 772 773 774 776 777 779 780 782 783 784 785 786 787 788 789 789 790 791 792 793 793 793 794 794 795 796 796 796 796 797 797 797 797 798 798 798 798 798 798 798 798 798 798 797 797 796 795 795 794 794 794 793 793 792 792 792 791
757 758 759 760 762 763 764 765 767 768 769 770 772 773 774 775 777 778 779 781 782 783 784 785 786 787 788 789 789 790 791 792 792 793 793 794 794 794 795 795 795 795 795 796 796 796 796 796 796 796 796 797 796 796 796 795 795 794 794 793 792 792 791 791 790 790 790 789 789
757 758 759 760 761 763 764 765 766 767 769 770 771 772 773 774 776 777 779 780 781 782 783 784 785 786 787 788 789 789 790 791 791 792 792 793 793 794 794 794 794 794 794 794 795 795 795 795 795 795 795 795 795 794 794 793 793 792 791 791 790 789 789 789 788 788 787 787 787
756 758 759 760 761 762 763 764 765 767 768 769 770 771 772 774 775 776 778 779 781 782 783 784 784 786 787 787 788 789 789 790 790 791 791 792 792 792 792 793 793 793 793 793 793 793 793 793 793 793 793 793 793 792 792 791 791 790 789 789 788 787 787 786 786 786 785 785 784
756 757 758 759 760 761 763 764 765 766 767 768 769 770 772 773 775 776 778 779 780 781 782 783 784 785 785 786 787 788 788 789 790 790 791 791 791 791 791 791 791 792 792 792 792 792 792 792 792 792 792 791 791 790 790 789 789 788 787 786 786 785 785 784 784 784 783 783 782
756 757 758 759 760 761 762 763 764 765 766 767 769 770 771 773 774 776 777 778 779 780 781 782 783 784 784 785 786 787 788 788 789 789 790 790 790 790 790 790 790 790 790 790 790 790 790 790 790 790 790 789 789 789 788 788 787 786 785 784 784 783 783 782 782 781 781 780 780
755 756 757 758 759 760 762 763 764 765 766 767 769 770 771 773 774 775 776 777 778 779 780 781 782 783 784 785 785 786 787 787 788 788 789 789 789 789 789 789 789 789 789 789 789 789 788 788 788 788 788 788 787 787 786 786 785 784 783 782 782 781 780 780 780 779 779 778 778
755 756 757 758 759 760 761 762 764 765 766 767 769 770 771 772 774 775 776 777 778 779 780 781 782 783 783 784 785 785 786 786 786 787 787 787 788 788 788 788 787 787 787 787 787 787 786 786 786 786 786 786 785 785 784 784 783 782 781 780 780 779 778 778 778 777 776 776 775
755 756 757 758 759 760 761 763 764 765 766 767 768 769 771 772 774 774 775 776 778 779 779 780 781 782 783 783 784 784 784 785 785 785 786 786 786 786 786 786 785 785 785 785 785 785 784 784 784 784 784 784 783 783 783 782 781 780 779 778 778 777 777 776 775 775 774 774 773
Wind_Speed
19 19 19 20 22 22 22 21 22 23 23 23 22 22 23 23 23 22 23 24 24 24 24 25 25 26 25 25 24 23 21 19 18 17 15 14 12 10 9 8 6 6 5 5 5 5 5 5 5 5 4 4 3 3 3 4 4 3 3 3 4 4 4 5 5 6 6 7 7
19 19 20 21 22 23 22 22 22 23 24 23 23 22 23 23 22 22 23 23 24 24 24 24 25 25 25 25 24 23 21 20 19 17 15 14 12 10 9 7 6 5 5 5 5 5 4 4 4 4 4 4 4 2 2 3 3 3 3 4 4 4 4 5 6 6 6 7 7
20 21 21 21 21 22 22 21 22 23 23 22 22 22 22 22 22 22 22 23 24 24 24 25 25 26 26 25 24 23 21 20 19 17 15 14 12 10 9 7 6 5 5 5 5 4 4 4 4 4 3 3 3 1 2 3 3 3 4 4 4 4 5 6 6 6 6 7 7
21 21 21 21 21 22 22 21 22 22 22 21 20 20 21 22 22 22 22 23 23 25 26 26 26 27 26 25 24 23 21 20 18 17 15 13 12 10 9 7 6 5 5 5 4 4 4 4 4 3 3 2 1 2 3 3 4 4 4 4 5 5 6 6 6 6 6 7 7
21 21 21 21 21 22 21 21 21 21 21 20 20 20 21 21 22 22 23 23 24 26 27 28 28 27 27 26 24 23 22 20 18 17 15 13 12 10 8 7 6 5 5 5 4 4 4 4 4 3 3 2 3 4 4 4 4 4 4 5 5 6 6 6 7 7 7 7 7
20 20 21 20 21 20 20 19 21 21 21 21 22 22 22 22 23 24 24 25 26 27 28 28 28 27 27 25 24 23 22 20 18 17 15 13 11 10 8 7 6 6 5 5 4 4 4 4 4 3 3 3 4 4 4 5 5 5 5 5 6 6 6 7 7 7 8 8 8
20 20 19 19 20 19 19 19 20 21 22 22 23 23 23 24 25 26 26 27 27 28 28 29 28 27 27 26 25 23 22 20 19 17 15 13 11 9 8 7 6 6 5 5 4 4 4 4 4 3 3 4 4 4 5 5 6 6 6 6 6 6 7 7 8 8 9 9 9
18 18 18 18 19 19 19 20 21 22 23 23 24 24 25 25 26 27 27 27 28 28 29 29 29 28 27 26 25 24 22 21 19 17 15 13 11 9 8 7 6 6 5 5 4 4 4 4 4 4 4 4 5 5 5 6 6 6 6 6 6 7 7 8 9 10 10 10 10
17 17 18 18 19 20 21 22 23 23 24 24 24 25 25 26 27 27 27 27 28 29 29 29 29 28 27 26 25 24 22 21 19 17 15 13 11 10 8 8 7 6 6 5 5 4 4 4 4 4 5 5 5 6 6 6 7 7 7 7 7 7 8 8 9 9 10 10 11
18 18 19 20 20 21 22 23 24 24 24 24 24 25 26 26 27 27 28 28 29 29 29 29 29 28 27 26 25 24 22 20 18 16 14 12 11 10 9 8 7 6 6 5 5 5 5 5 5 5 5 5 6 6 7 7 7 8 8 8 8 8 9 9 9 10 10 11 11
21 21 22 22 23 23 24 24 24 23 23 23 24 24 25 26 27 28 28 29 29 29 29 29 29 28 27 26 25 23 21 19 18 16 14 12 11 10 9 8 7 7 6 6 5 5 5 5 5 5 5 6 6 7 7 8 8 8 8 9 9 9 10 10 10 10 11 11 11
23 24 24 25 25 25 25 25 24 23 23 23 24 24 25 26 27 28 29 29 29 29 30 29 29 28 28 26 25 23 21 19 17 15 14 12 11 10 9 8 7 7 6 6 6 6 6 6 6 6 6 6 7 8 8 8 8 8 9 9 10 10 11 11 11 11 11 11 11
24 25 26 26 27 27 26 25 25 24 24 24 24 25 26 27 28 29 30 30 30 30 30 30 29 28 28 26 25 23 21 19 17 15 14 13 12 10 9 9 8 7 7 7 6 6 6 6 6 6 7 7 8 8 8 8 8 9 10 10 11 11 11 12 11 11 11 11 11
24 25 26 27 27 27 27 26 26 25 25 25 26 26 27 29 30 31 32 32 32 32 31 30 29 28 27 26 24 22 20 19 17 15 14 13 12 11 10 9 8 8 7 7 7 7 6 6 6 7 7 8 9 9 9 9 9 10 11 12 12 13 12 12 11 11 11 11 12
24 25 26 27 28 28 28 27 27 27 27 27 28 29 29 30 32 33 33 33 34 33 33 32 30 29 27 25 23 21 20 18 16 15 14 13 12 11 10 9 9 8 8 7 7 7 7 7 7 7 8 9 9 10 10 10 10 11 12 13 13 13 13 12 12 11 12 12 13
23 24 26 27 28 28 28 28 28 28 28 29 29 30 31 31 32 33 34 34 34 34 33 32 31 29 26 24 22 20 18 17 16 15 14 13 13 11 10 9 9 8 8 7 7 7 7 7 7 8 9 9 10 10 10 10 11 12 12 13 13 14 13 13 13 13 13 14 14
22 23 24 26 27 27 27 27 26 26 27 28 29 29 30 30 30 31 32 33 33 32 31 30 29 27 25 23 21 19 18 17 16 15 14 14 13 11 10 9 9 8 7 7 7 7 7 8 8 8 9 10 10 10 10 10 11 12 13 13 14 14 14 14 14 14 14 15 15
21 22 23 25 25 26 26 25 24 24 25 26 27 27 28 27 27 27 28 29 29 29 28 28 27 25 24 23 21 20 18 17 16 16 15 13 12 11 10 9 8 8 7 7 7 7 8 8 9 9 10 10 10 10 10 11 11 12 13 14 14 15 15 15 15 15 15 15 16
23 23 24 25 25 25 25 24 23 23 24 24 25 26 26 25 25 25 25 25 26 26 26 26 25 24 23 22 21 19 18 17 16 15 14 13 11 10 9 9 8 8 7 7 7 8 8 9 9 10 10 10 11 11 11 12 12 13 13 14 14 15 15 15 15 15 15 16 16
24 25 25 26 25 25 24 23 23 23 23 24 25 25 25 25 25 25 25 25 25 25 25 25 23 22 21 20 19 19 18 17 16 15 14 12 11 10 9 9 8 8 8 8 8 8 8 9 10 10 11 11 11 11 12 12 13 13 14 14 15 15 15 15 15 15 15 15 16
22 23 24 24 24 23 23 22 22 22 23 23 24 25 25 25 25 25 26 26 26 25 24 23 21 20 20 19 19 18 17 16 15 14 13 12 11 10 9 9 8 8 8 8 8 8 9 9 10 10 11 11 11 12 12 12 13 13 14 14 14 14 14 14 15 15 15 16 16
19 20 21 21 21 21 21 21 21 22 22 23 24 25 26 26 26 26 27 26 25 24 23 22 20 20 19 19 19 18 17 16 15 14 13 12 11 10 9 9 9 9 9 9 9 9 9 9 10 11 11 11 12 12 13 13 14 14 14 14 14 14 15 15 15 16 16 17 17
17 18 19 19 19 19 19 20 20 21 22 23 25 26 26 27 27 27 27 26 25 24 22 21 21 20 19 19 18 17 16 15 14 13 12 11 10 10 10 10 10 10 10 9 9 9 10 10 11 11 11 12 12 13 13 14 15 15 15 16 16 16 16 16 16 16 16 16 16
18 18 19 19 19 20 20 21 22 22 24 25 26 27 27 28 28 27 27 26 25 24 23 22 21 21 20 18 17 17 16 15 14 13 12 11 11 10 10 10 10 10 10 10 10 10 10 11 12 12 12 12 13 13 14 15 15 15 16 16 16 16 16 16 16 16 16 16 16
19 20 20 21 21 22 22 23 24 25 25 26 27 28 28 28 28 27 27 26 25 24 23 22 22 21 19 18 17 16 15 14 14 13 12 12 11 11 11 11 11 11 11 11 11 11 11 12 12 12 13 13 14 14 15 15 15 15 15 16 16 16 16 16 16 15 15 16 16
20 21 22 22 23 23 23 24 25 25 26 26 27 27 27 27 27 27 27 26 24 23 23 22 21 20 19 18 17 16 15 14 14 13 12 12 12 12 12 12 12 12 12 12 12 12 12 12 13 13 13 14 14 15 15 15 15 15 15 15 16 16 16 16 16 16 16 16 16
20 21 21 22 23 23 23 24 24 24 25 26 26 26 26 26 26 26 26 25 24 23 22 22 21 20 19 18 17 17 16 15 14 13 12 12 12 12 12 12 12 12 13 13 13 13 13 13 13 14 14 14 15 15 15 15 15 15 16 16 17 17 17 17 17 17 17 16 16
20 20 21 21 22 22 22 23 23 24 24 25 26 26 26 26 26 26 26 25 24 23 22 22 21 20 19 19 18 17 16 15 14 13 13 12 12 12 12 12 13 13 14 14 13 13 13 14 14 14 15 15 15 15 15 15 15 16 16 16 17 17 18 18 18 17 17 16 16
19 20 20 21 21 21 22 22 23 24 24 25 26 27 27 27 27 26 26 25 24 24 23 22 21 21 20 19 19 18 16 15 14 14 13 13 12 12 12 13 14 14 15 15 14 14 14 14 15 15 15 15 15 15 15 16 16 15 15 15 16 16 17 17 17 17 16 16 16
19 19 20 21 21 21 21 22 23 24 24 25 26 27 27 27 27 26 25 25 25 25 24 23 22 21 21 20 19 18 17 16 15 14 13 13 13 13 13 14 14 15 15 15 15 14 15 15 16 16 16 16 16 16 16 16 16 16 16 16 16 16 17 17 17 17 17 16 16
18 19 19 20 20 20 21 22 22 23 24 25 26 26 27 27 26 26 25 25 25 24 23 23 22 22 21 20 19 18 17 16 15 14 13 13 13 13 14 14 15 15 16 16 15 15 15 16 16 17 17 17 17 17 17 17 17 16 16 17 17 17 18 18 18 18 18 18 17
18 18 19 19 20 20 21 21 22 22 24 25 26 26 26 26 26 25 24 24 23 23 22 22 22 22 21 19 18 17 16 16 15 14 13 13 13 13 13 14 15 16 16 16 16 16 16 16 17 17 18 17 17 18 18 18 17 17 17 18 19 19 19 19 19 19 19 19 18
17 18 18 19 19 19 20 21 21 22 23 24 25 25 26 26 25 24 23 22 22 22 22 22 22 22 21 19 18 17 16 16 15 14 13 12 12 13 13 14 15 16 16 17 17 17 17 17 17 18 18 18 18 18 18 18 18 18 18 19 19 20 20 20 20 20 21 21 20
17 17 18 18 19 19 19 20 21 21 22 23 24 24 25 25 24 23 22 21 21 21 21 21 22 21 20 19 18 17 16 15 14 13 12 12 12 13 14 14 15 16 16 16 17 17 17 17 17 18 18 18 18 18 18 18 18 18 19 20 20 20 20 20 21 22 22 23 22
17 17 17 18 18 19 19 20 21 21 22 22 23 23 24 24 24 23 21 20 19 19 19 20 20 19 18 17 16 16 15 15 14 13 12 12 12 13 14 15 15 15 16 16 17 17 17 18 18 18 18 18 18 18 19 19 19 19 20 21 21 21 21 21 21 22 23 23 23
17 17 17 18 19 19 20 20 21 21 22 22 23 23 23 23 23 22 20 19 19 18 18 18 18 18 17 17 16 16 15 14 13 13 12 12 12 13 14 15 15 15 16 16 17 17 18 18 19 19 18 18 19 19 19 19 19 19 20 20 21 21 21 21 21 22 22 23 23
17 17 18 18 19 19 20 20 21 21 21 22 22 23 23 22 21 19 19 18 18 18 18 18 18 18 17 17 17 16 15 14 13 12 12 12 13 13 14 15 15 15 16 16 17 18 18 19 19 19 19 19 19 19 19 18 18 19 19 20 20 21 21 21 21 21 22 22 23
17 17 18 18 19 19 20 20 21 21 21 21 22 22 22 21 19 18 17 18 18 18 17 17 17 18 18 18 17 16 15 14 13 13 13 13 13 14 14 15 16 16 16 17 17 18 19 19 20 19 20 20 20 19 18 18 18 18 19 19 19 20 20 20 19 19 20 21 22
17 17 17 18 19 19 20 20 20 20 21 21 20 20 20 19 18 17 17 18 18 18 17 17 17 17 17 17 16 15 15 14 14 13 14 14 14 14 15 16 16 17 17 18 18 19 20 20 20 20 20 21 20 20 19 18 18 18 19 19 19 19 19 19 19 19 19 20 21
16 17 17 18 18 19 19 19 19 20 20 20 19 19 18 18 17 16 16 17 17 17 16 16 16 16 16 16 16 15 15 15 15 14 15 15 15 15 16 16 18 18 19 19 20 20 21 21 21 21 21 21 21 20 19 18 18 19 19 19 19 19 19 19 19 19 19 19 20
16 16 17 18 18 18 18 18 18 18 19 19 18 18 17 17 15 15 15 16 16 16 15 14 14 14 14 15 15 15 15 15 15 15 16 16 16 16 17 18 19 20 20 21 21 21 22 22 22 22 22 22 22 21 19 18 18 19 19 19 19 19 19 19 19 19 19 19 20
Wind_Direction
181 180 180 181 182 182 182 183 184 184 184 183 183 184 186 187 188 190 193 194 194 195 195 196 196 197 199 200 200 200 200 199 199 200 201 203 205 208 212 218 228 240 255 273 287 299 307 312 318 325 330 334 334 315 294 290 292 285 270 257 258 262 264 267 269 270 270 269 268
181 179 179 180 181 182 182 182 184 184 185 185 185 186 187 188 189 191 193 194 195 195 194 195 196 198 199 200 201 200 200 199 199 200 201 203 205 208 213 219 229 244 259 273 285 295 304 308 313 318 323 327 332 320 286 281 281 274 261 254 256 259 263 265 267 269 270 270 269
178 177 177 178 179 181 182 182 184 185 185 185 186 187 188 189 190 191 192 193 194 194 194 194 196 198 200 200 201 201 200 199 199 200 200 202 204 208 213 220 231 244 259 272 283 292 298 300 304 309 315 321 329 306 245 247 258 261 255 251 254 258 261 265 267 268 268 268 267
177 176 176 177 179 181 183 184 185 185 185 185 185 186 187 188 189 190 191 192 192 193 194 195 197 198 200 201 200 200 199 199 199 200 200 202 204 206 212 221 229 240 254 268 278 287 291 292 295 300 305 307 285 229 223 232 241 248 249 250 255 259 261 265 266 266 266 266 266
177 177 178 180 182 184 185 186 186 185 184 184 184 184 186 187 188 189 189 190 192 194 197 198 198 199 200 201 200 199 198 198 198 199 200 201 203 207 212 220 228 239 253 265 274 279 283 284 288 291 289 269 240 226 226 234 237 240 246 255 262 265 267 267 268 267 267 267 266
178 180 182 183 184 184 185 186 186 185 184 185 185 185 186 188 189 190 191 192 194 197 198 199 199 200 200 199 199 198 197 197 197 198 199 201 203 206 211 218 229 241 253 262 270 275 276 276 279 280 272 255 243 236 234 236 239 243 249 256 262 267 269 268 268 268 268 268 268
181 182 183 184 184 184 184 184 184 184 185 186 187 187 189 191 193 194 195 195 196 197 198 198 199 199 199 198 197 196 196 196 196 198 198 200 202 205 209 217 229 241 250 259 264 268 269 269 266 263 256 248 242 240 240 241 243 248 254 258 261 263 264 263 266 268 269 270 269
184 184 184 184 184 184 184 183 183 184 186 188 190 191 193 196 196 197 197 196 196 196 197 198 198 199 199 197 196 196 196 196 196 197 198 198 200 203 209 218 228 238 247 255 259 260 260 260 255 247 240 240 239 238 239 244 249 255 261 264 264 263 263 265 268 270 272 272 270
184 185 185 184 184 184 184 185 185 187 189 192 193 195 198 199 199 198 196 195 196 197 197 197 198 199 199 198 196 196 196 196 196 196 196 197 199 203 210 219 226 234 241 247 249 250 250 250 247 241 236 237 238 240 241 246 253 261 267 270 269 266 264 264 267 269 271 272 271
184 184 184 184 184 185 187 188 189 192 194 195 196 198 199 200 199 197 196 196 197 197 196 197 198 198 198 197 197 197 196 196 195 195 195 196 199 205 212 220 225 230 234 236 237 238 240 242 241 239 237 239 241 243 245 250 257 264 270 273 274 272 269 266 265 266 267 268 269
185 185 185 185 186 188 190 190 191 194 196 196 196 197 198 198 197 197 197 197 196 196 196 198 198 197 197 197 197 197 196 196 195 194 194 196 201 207 214 220 225 227 229 230 230 231 232 235 238 237 237 237 241 244 248 253 260 265 270 274 276 275 274 271 269 267 266 267 268
187 187 188 188 190 191 192 192 192 193 194 194 194 195 197 197 197 197 198 198 196 197 198 199 198 198 198 197 197 196 195 195 194 193 195 197 201 207 212 216 220 222 225 227 230 231 232 234 235 234 233 233 237 243 249 255 260 265 268 271 273 274 273 272 271 269 267 267 267
189 189 190 191 192 193 193 193 193 193 194 194 195 196 198 199 199 200 199 198 198 197 198 198 199 198 198 197 196 195 194 193 193 193 195 197 201 204 207 209 213 217 221 226 230 233 233 234 235 234 231 231 234 240 246 253 259 262 266 268 270 270 271 271 271 269 267 266 265
192 192 192 193 194 194 194 195 195 196 196 197 199 200 201 200 201 201 200 199 199 198 198 198 197 197 197 196 195 193 192 191 191 192 194 196 199 201 202 205 210 215 221 225 230 232 233 234 235 235 234 233 234 238 243 250 257 263 267 270 271 272 272 272 271 269 266 264 263
194 195 196 196 195 196 196 196 197 198 199 200 202 202 201 200 200 200 199 198 199 199 198 196 194 194 194 194 192 191 190 189 189 190 192 195 197 198 200 205 211 216 221 224 229 230 232 233 235 237 237 237 238 241 245 251 258 265 270 274 275 276 275 274 271 268 264 263 263
196 196 197 196 196 196 196 197 197 198 199 199 200 199 198 196 196 196 196 195 196 195 194 192 191 190 190 190 189 189 188 188 189 190 192 194 195 198 201 207 213 217 220 223 226 229 231 234 236 238 239 241 245 249 253 257 262 267 271 274 276 276 275 274 271 267 265 264 264
196 196 196 196 195 195 195 195 196 196 196 195 195 194 192 191 190 190 190 190 189 188 187 187 187 187 187 187 187 187 187 187 188 190 192 195 197 200 204 209 214 218 220 222 225 229 232 235 237 239 243 247 253 259 263 267 269 272 274 275 275 275 275 273 271 268 267 266 266
197 197 197 196 195 195 195 194 194 194 193 192 191 189 188 186 184 184 184 184 184 183 183 184 186 186 186 185 185 186 187 187 188 191 194 198 201 204 207 212 216 219 221 223 227 231 234 236 238 241 246 253 260 266 271 274 276 278 279 279 278 278 276 274 271 270 268 267 267
198 199 199 198 197 197 196 194 193 192 191 189 188 186 184 183 181 180 181 182 185 186 186 185 186 186 185 184 184 185 187 189 190 192 195 199 203 206 209 213 217 220 222 225 229 233 235 236 237 240 246 255 264 271 276 279 282 283 284 284 284 282 280 278 274 271 268 268 268
199 199 199 199 198 197 196 194 193 191 190 188 186 185 183 183 183 183 184 185 188 188 188 186 185 185 185 186 186 188 189 191 193 194 197 201 204 207 211 215 219 222 225 228 231 233 235 236 237 241 247 255 262 269 274 278 281 283 284 285 285 284 283 280 277 272 270 268 268
198 198 198 197 196 195 194 193 192 190 188 187 186 186 185 186 187 188 189 189 189 189 188 188 187 187 188 190 191 192 193 194 195 196 199 202 205 209 213 218 223 228 231 232 234 236 237 239 242 245 250 255 260 264 269 273 275 276 278 278 278 278 278 277 274 271 269 268 267
197 197 196 194 193 192 191 189 188 187 187 186 187 188 188 189 189 190 191 191 190 189 189 190 192 193 194 195 195 196 196 196 196 198 201 205 207 211 216 223 229 233 236 237 238 241 244 247 249 252 254 257 260 264 268 270 271 272 273 273 272 271 270 269 268 268 267 267 267
194 193 192 191 190 188 187 187 187 187 187 188 189 190 191 190 191 191 192 191 190 190 191 193 196 197 198 199 198 197 196 196 197 199 203 207 210 214 220 227 233 237 241 243 245 248 250 253 255 257 259 261 263 266 269 270 272 274 275 275 274 272 271 270 269 269 268 267 266
192 191 190 189 188 188 189 190 190 191 191 192 192 192 192 191 190 190 190 190 190 190 192 194 196 197 198 198 197 197 197 197 198 201 204 208 212 218 224 231 236 241 246 250 252 255 256 258 259 260 262 263 265 267 269 271 274 276 277 277 277 276 275 274 272 270 267 266 266
192 191 191 190 190 191 192 193 193 193 193 193 193 192 190 189 188 188 188 188 189 189 191 192 194 196 196 195 196 197 199 200 202 204 207 211 216 222 228 233 239 245 250 255 258 259 259 260 261 262 263 264 265 268 270 273 275 277 277 276 274 273 273 272 271 268 266 265 265
191 191 191 191 191 191 192 192 193 192 192 192 191 189 187 186 186 186 186 186 187 188 190 192 194 195 195 195 196 198 200 203 206 208 211 215 220 226 231 236 241 248 254 259 262 262 261 261 262 263 264 265 267 269 272 275 277 276 274 272 270 268 268 268 269 269 268 266 266
190 190 190 190 190 190 190 190 190 189 189 189 187 186 184 184 185 185 185 185 186 188 190 193 195 195 195 196 198 200 202 205 208 211 216 220 225 230 234 240 247 253 258 262 264 264 263 262 262 262 263 265 267 269 271 272 272 271 269 268 267 266 266 267 268 269 270 269 268
188 189 188 188 188 188 188 188 187 187 187 187 185 184 184 184 184 185 185 186 187 189 191 193 195 197 197 198 200 203 205 207 210 214 218 223 229 234 240 246 252 257 260 262 263 264 263 262 262 261 260 261 262 263 264 264 264 264 264 264 265 264 264 265 265 266 268 270 269
188 188 187 187 187 187 187 186 186 186 186 186 185 184 184 184 185 185 186 187 188 190 192 194 196 198 198 200 203 205 207 209 213 216 220 225 231 237 244 249 254 259 262 263 263 263 263 262 261 259 258 257 256 256 256 257 259 260 261 261 261 261 261 261 262 264 265 266 268
188 187 187 187 186 186 186 186 186 186 186 185 184 184 184 184 185 185 186 187 190 193 195 196 197 198 200 203 205 207 208 211 215 218 222 227 233 239 245 250 255 259 262 264 264 264 264 262 261 259 258 256 254 253 253 255 257 258 259 260 260 260 260 260 260 261 262 264 267
187 187 187 187 186 186 186 186 185 184 184 184 183 184 184 185 185 185 187 189 192 195 197 199 199 201 203 205 207 209 211 214 216 220 224 230 236 242 247 252 255 259 262 264 266 266 265 264 262 261 259 256 253 252 253 255 256 257 258 258 259 259 260 260 260 261 261 263 265
187 187 187 187 186 186 186 185 183 183 183 183 183 184 184 185 186 186 188 191 193 195 197 199 201 203 204 206 209 211 215 217 220 223 228 233 240 246 250 254 256 260 263 265 267 268 267 266 264 262 260 257 254 253 253 255 256 257 257 258 259 259 260 260 260 260 261 262 263
187 187 187 187 187 186 185 184 183 182 183 183 183 184 184 185 186 186 188 191 193 195 197 200 203 204 205 207 210 214 218 221 225 228 233 238 244 249 253 255 257 260 263 267 269 270 270 269 266 264 261 258 255 254 254 255 256 256 257 258 259 259 259 259 259 259 260 261 262
188 187 187 187 187 185 184 183 182 182 182 182 183 184 185 185 185 186 188 191 193 196 199 202 204 206 207 209 211 215 219 224 229 233 238 242 247 251 254 257 259 262 265 268 271 273 273 271 269 266 263 260 256 255 255 255 256 257 258 259 259 259 259 259 259 259 260 261 262
188 188 187 188 187 186 184 183 182 182 182 182 183 184 185 185 186 187 188 190 193 196 200 203 205 207 208 210 213 217 221 225 231 236 241 245 248 252 256 259 263 266 269 270 272 273 274 273 271 268 264 260 256 255 255 256 257 258 258 259 260 260 260 259 259 259 260 261 262
190 189 188 188 188 187 185 183 182 182 182 183 183 184 185 186 186 187 189 190 192 195 198 202 204 206 207 209 214 218 222 226 231 237 243 247 250 254 258 261 266 270 272 273 274 275 274 274 272 269 265 260 256 255 255 257 257 258 259 260 260 260 260 260 260 260 260 261 261
192 192 191 190 189 187 186 184 183 183 183 184 184 184 184 185 186 187 188 190 192 194 198 201 203 204 207 210 214 220 225 230 234 238 243 247 251 255 259 264 268 272 275 276 276 277 276 275 273 270 265 259 256 255 256 257 258 259 260 260 260 261 261 261 260 260 260 261 261
194 194 192 191 190 188 186 185 184 184 184 184 184 184 184 184 184 186 189 192 193 195 198 200 203 206 209 213 218 224 230 235 239 242 244 247 251 255 260 265 270 274 278 278 278 278 278 277 275 271 265 259 256 255 256 257 258 259 259 260 261 262 262 261 261 260 260 261 261
195 195 194 192 191 189 187 186 185 185 184 183 183 183 184 184 185 187 191 195 196 197 198 202 205 209 213 217 222 228 234 239 243 246 248 250 253 257 261 264 270 275 279 280 280 279 279 278 276 272 267 261 257 255 256 257 258 259 260 261 262 264 264 262 262 262 261 261 261
196 195 195 194 192 189 187 186 186 186 184 183 182 182 184 185 186 188 192 196 198 200 201 203 207 212 217 221 226 232 238 243 247 251 253 256 259 261 263 265 270 275 279 280 280 280 279 278 277 274 268 262 258 256 255 256 258 260 261 261 263 265 266 265 264 264 263 262 262
196 195 195 195 193 190 188 187 186 185 184 183 182 183 184 185 186 189 193 197 199 201 202 205 209 214 219 224 229 234 239 244 249 254 258 262 264 265 267 268 272 276 279 281 280 280 279 278 277 274 269 263 259 256 254 256 258 260 261 262 263 265 267 268 268 266 265 264 263